Location: Buchdorf
(48.7842°N, 10.8275°E)
Time: 03:50:04
(UTC+00:00)

Cosmos 1908 - Pass Details

Date: 09 April 2020
Orbit: 511 x 531 km, 82.5° (Epoch: 01 June)

Event Time Altitude Azimuth Distance (km) Brightness Sun altitude
Rises 19:05:41 0° 194° (SSW) 2,638 6.7 -11.0°
Reaches altitude 10° 19:07:49 10° 197° (SSW) 1,759 5.8 -11.3°
Maximum altitude 19:11:40 69° 281° (W) 569 3.6 -11.9°
Drops below altitude 10° 19:15:34 10° 5° (N) 1,786 6.2 -12.5°
Sets 19:17:45 0° 8° (N) 2,683 7.1 -12.8°
